Find Starlink 3523

NORAD ID: 51729 Int'l Des: 2022-016 Owner: SPXS Country: US Constellation: starlink operational
LEOCIRCULAR

リアルタイム位置

3D地球を読み込み中...

Starlink 3523について

説明を読み込み中...

次回通過

Passes for default location (London). Set your location on the main map for personalized predictions.

高度履歴

Loading altitude history...

軌道要素

1 51729U 22016R 26124.12818359 -.00003129 00000-0 -17846-3 0 9993
2 51729 53.2188 70.2452 0001935 75.4695 284.6511 15.08856448231931
Epoch: May 4, 2026 • Age: 10 hours

現在のステータス

高度 548.7 km
速度 7.59 km/s
衛星直下点 -26.94°S, 155.37°W
打ち上げ日 Feb 21, 2022
運用期間 4.1 years
タイプ internet

技術仕様

分類 Payload
質量 297.00 kg
乾燥質量 275.00 kg
総質量 297.00 kg
長さ 0.20 m
直径 2.80 m
スパン 9.00 m
形状 Box + pan
製造者 SPXS
バスタイプ Starlink
フェーズステータス In Orbit
所有者/国 SPXS/US

Most Searched